Simultaneous Nadir Overpasses (SNOs) Predictions

Prediction of SNOs between AURA and NPP Satellite Orbit:

Table of predicted SNOs for the next 14.0 days since TLE Epoch: 8/24/2013
Index Date (AURA) Time (AURA) Lat,Lon (AURA) SZA (AURA ) Date (NPP) Time (NPP) Lat,Lon (NPP) SZA (NPP ) Distance(km) Time Diff (sec)
1 08/25/2013 19:08:54 79.08, 146.82 82.77 08/25/2013 19:08:18 79.08, 146.82 82.80 0.16 36
2 08/25/2013 19:58:13 -79.40, -43.53 97.67 08/25/2013 19:58:54 -79.40, -43.49 97.71 0.81 41
3 08/28/2013 11:25:20 79.14, -96.97 83.59 08/28/2013 11:25:15 79.13, -97.09 83.61 2.60 5
4 08/28/2013 12:14:40 -79.41, 72.45 96.80 08/28/2013 12:15:52 -79.41, 72.36 96.84 1.83 72
5 08/31/2013 02:52:25 -78.97,-149.70 95.30 08/31/2013 02:51:33 -78.97,-149.77 95.25 1.65 52
6 08/31/2013 03:41:44 79.25, 19.62 84.33 08/31/2013 03:42:10 79.24, 19.50 84.34 2.64 26
7 09/02/2013 19:08:46 -79.15, -32.75 94.63 09/02/2013 19:08:25 -79.15, -32.71 94.62 0.83 21
8 09/02/2013 19:58:06 79.38, 136.35 85.07 09/02/2013 19:59:03 79.38, 136.34 85.03 0.25 57
9 09/05/2013 10:35:51 78.89, -86.02 86.65 09/05/2013 10:34:45 78.89, -86.08 86.71 1.36 66




NCC Satellite Simultaneous Nadir Overpasses (SNOs) Prediction Service
